CW5061 Weather Reports


Display with metric or nautical units.
time (UTC)temp
F
wind
direction
speed
MPH
gust
MPH
rain 1hr
in
rain 24hr
in
rain mn
in
humidity
%
barometer
mb
20260506043807 55 306 1.0 2.0 0.00 0.00 0.00 84 1017.7
20260506043533 55 286 1.0 3.0 0.00 0.00 0.00 84 1017.7
20260506042807 55 308 1.0 3.0 0.00 0.00 0.00 84 1017.7
20260506042307 55 279 1.0 3.0 0.00 0.00 0.00 84 1017.6
20260506041807 55 329 1.0 3.0 0.00 0.00 0.00 83 1017.6
20260506041522 55 294 0.0 2.0 0.00 0.00 0.00 83 1017.5
20260506041026 55 296 0.0 2.0 0.00 0.00 0.00 83 1017.5
20260506040307 55 266 0.0 2.0 0.00 0.00 0.00 83 1017.5
20260506035758 55 329 0.0 2.0 0.00 0.00 0.00 84 1017.5
20260506035301 56 316 0.0 2.0 0.00 0.00 0.00 83 1017.4
20260506034756 56 306 0.0 3.0 0.00 0.00 0.00 84 1017.4
20260506034258 56 255 1.0 3.0 0.00 0.00 0.00 84 1017.4
20260506033758 56 279 0.0 2.0 0.00 0.00 0.00 84 1017.3
20260506033256 56 275 1.0 3.0 0.00 0.00 0.00 84 1017.2
20260506032756 56 327 1.0 3.0 0.00 0.00 0.00 83 1017.1
20260506032257 56 312 1.0 3.0 0.00 0.00 0.00 83 1017.1
20260506031757 56 327 0.0 4.0 0.00 0.00 0.00 82 1017.0
20260506031257 56 304 1.0 4.0 0.00 0.00 0.00 82 1017.0
20260506031021 56 321 1.0 4.0 0.00 0.00 0.00 82 1016.9
20260506030257 56 327 2.0 6.0 0.00 0.00 0.00 81 1016.9
20260506025757 56 333 3.0 6.0 0.00 0.00 0.00 82 1016.8
20260506025257 56 328 2.0 6.0 0.00 0.00 0.00 81 1016.8
20260506024758 56 346 2.0 6.0 0.00 0.00 0.00 81 1016.7
20260506024257 56 315 2.0 4.0 0.00 0.00 0.00 81 1016.7
20260506023758 56 310 2.0 4.0 0.00 0.00 0.00 81 1016.6
20260506023258 56 331 2.0 4.0 0.00 0.00 0.00 81 1016.6
20260506022805 56 327 3.0 6.0 0.00 0.00 0.00 80 1016.6
20260506022520 56 313 3.0 6.0 0.00 0.00 0.00 80 1016.4
20260506021757 57 332 3.0 5.0 0.00 0.00 0.00 80 1016.4
20260506021256 57 322 2.0 5.0 0.00 0.00 0.00 80 1016.3
20260506020756 57 331 2.0 5.0 0.00 0.00 0.00 80 1016.3
20260506020257 57 330 2.0 5.0 0.00 0.00 0.00 80 1016.3
20260506015757 57 321 2.0 5.0 0.00 0.00 0.00 80 1016.3
20260506015252 57 325 3.0 5.0 0.00 0.00 0.00 80 1016.2
20260506015019 57 321 3.0 6.0 0.00 0.00 0.00 79 1016.2
20260506014252 57 338 2.0 6.0 0.00 0.00 0.00 79 1016.3
20260506014012 57 327 3.0 6.0 0.00 0.00 0.00 80 1016.3
20260506013248 57 312 3.0 6.0 0.00 0.00 0.00 80 1016.3
20260506012749 58 332 3.0 5.0 0.00 0.00 0.00 80 1016.2
20260506012248 58 308 1.0 4.0 0.00 0.00 0.00 79 1016.2
20260506012009 58 306 1.0 4.0 0.00 0.00 0.00 80 1016.2
20260506011518 58 268 2.0 5.0 0.00 0.00 0.00 80 1016.2
20260506010746 58 315 2.0 5.0 0.00 0.00 0.00 79 1016.1
20260506010247 58 0 3.0 5.0 0.00 0.00 0.00 79 1016.3
20260506005748 58 317 3.0 6.0 0.00 0.00 0.00 79 1016.3
20260506005246 58 323 3.0 7.0 0.00 0.00 0.00 79 1016.2
20260506004746 58 295 4.0 7.0 0.00 0.00 0.00 78 1016.2
20260506004247 58 313 3.0 7.0 0.00 0.00 0.00 78 1016.2
20260506003748 58 329 2.0 7.0 0.00 0.00 0.00 78 1016.2
20260506003503 58 337 2.0 8.0 0.00 0.00 0.00 78 1016.1
20260506002738 59 315 2.0 8.0 0.00 0.00 0.00 77 1016.0
20260506002238 59 285 2.0 6.0 0.00 0.00 0.00 77 1016.0
20260506001739 59 311 2.0 7.0 0.00 0.00 0.00 76 1016.0
20260506001239 59 279 2.0 7.0 0.00 0.00 0.00 76 1016.0
20260506001004 59 327 3.0 7.0 0.00 0.00 0.00 76 1016.0
20260506000240 59 321 4.0 7.0 0.00 0.00 0.00 75 1016.0
20260505235739 59 327 3.0 7.0 0.00 0.00 0.00 75 1016.0
20260505235238 59 273 3.0 6.0 0.00 0.00 0.00 75 1016.1
20260505234746 59 305 3.0 6.0 0.00 0.00 0.00 75 1016.2
20260505234238 59 319 4.0 8.0 0.00 0.00 0.00 75 1016.2
20260505233739 59 298 3.0 8.0 0.00 0.00 0.00 75 1016.3
20260505233238 59 349 3.0 8.0 0.00 0.00 0.00 75 1016.3
20260505232740 59 282 3.0 8.0 0.00 0.00 0.00 75 1016.3
20260505232240 59 302 3.0 8.0 0.00 0.00 0.00 76 1016.3
20260505231737 60 284 3.0 8.0 0.00 0.00 0.00 76 1016.3
20260505231231 60 260 4.0 9.0 0.00 0.00 0.00 77 1016.4
20260505230725 60 314 5.0 9.0 0.00 0.00 0.00 77 1016.4
20260505230219 60 256 5.0 9.0 0.00 0.00 0.00 77 1016.6
20260505225714 60 299 5.0 11.0 0.00 0.00 0.00 76 1016.4
20260505225212 60 317 4.0 11.0 0.00 0.00 0.00 76 1016.4
20260505224712 60 327 4.0 11.0 0.00 0.00 0.00 75 1016.4
20260505224213 60 333 5.0 11.0 0.00 0.00 0.00 75 1016.4
20260505223937 60 332 4.0 8.0 0.00 0.00 0.00 75 1016.4
20260505223212 60 294 4.0 9.0 0.00 0.00 0.00 74 1016.6
20260505222712 60 290 3.0 9.0 0.00 0.00 0.00 75 1016.6
20260505222213 60 350 3.0 7.0 0.00 0.00 0.00 75 1016.6
20260505221711 60 324 4.0 9.0 0.00 0.00 0.00 75 1016.6
20260505221429 60 337 4.0 9.0 0.00 0.00 0.00 74 1016.4
20260505220927 60 322 3.0 9.0 0.00 0.00 0.00 73 1016.6
20260505220210 61 334 2.0 7.0 0.00 0.00 0.00 74 1016.6
20260505215708 61 101 3.0 9.0 0.00 0.00 0.00 74 1016.4
20260505215209 61 292 3.0 9.0 0.00 0.00 0.00 73 1016.6
20260505214706 62 306 2.0 8.0 0.00 0.00 0.00 73 1016.4
20260505214208 62 0 2.0 7.0 0.00 0.00 0.00 72 1016.3
20260505213704 62 229 3.0 7.0 0.00 0.00 0.00 73 1016.3
20260505213202 62 296 3.0 6.0 0.00 0.00 0.00 72 1016.2
20260505212700 63 284 2.0 6.0 0.00 0.00 0.00 72 1016.1
20260505212200 63 309 2.0 6.0 0.00 0.00 0.00 71 1016.1
20260505211703 63 334 2.0 6.0 0.00 0.00 0.00 72 1016.1
20260505211201 63 333 2.0 8.0 0.00 0.00 0.00 71 1016.1
20260505210701 63 298 2.0 8.0 0.00 0.00 0.00 71 1016.0
20260505210158 63 322 3.0 8.0 0.00 0.00 0.00 71 1016.0
20260505205658 63 319 2.0 8.0 0.00 0.00 0.00 70 1016.0
20260505205158 64 325 1.0 7.0 0.00 0.00 0.00 71 1016.0
20260505204700 63 278 1.0 4.0 0.00 0.00 0.00 72 1015.9
20260505204422 63 224 1.0 4.0 0.00 0.00 0.00 71 1015.9
20260505203658 63 329 2.0 5.0 0.00 0.00 0.00 72 1016.0
20260505203200 63 248 2.0 5.0 0.00 0.00 0.00 73 1016.0
20260505202921 64 306 2.0 6.0 0.00 0.00 0.00 70 1016.0
20260505202156 64 271 2.0 6.0 0.00 0.00 0.00 72 1016.0
20260505201649 63 276 2.0 6.0 0.00 0.00 0.00 73 1016.0
20260505201143 63 317 2.0 8.0 0.00 0.00 0.00 72 1016.1
20260505200638 64 336 2.0 8.0 0.00 0.00 0.00 72 1016.0
20260505200131 64 193 2.0 5.0 0.00 0.00 0.00 73 1016.0
20260505195627 64 238 2.0 5.0 0.00 0.00 0.00 75 1016.0
20260505195127 63 146 2.0 5.0 0.00 0.00 0.00 74 1016.0
20260505194626 63 194 1.0 5.0 0.00 0.00 0.00 76 1016.0
20260505194126 63 329 1.0 5.0 0.00 0.00 0.00 75 1016.0
20260505193626 62 275 2.0 6.0 0.00 0.00 0.00 75 1016.0
20260505193127 62 272 2.0 7.0 0.00 0.00 0.00 75 1016.0
20260505192626 62 251 2.0 7.0 0.00 0.00 0.00 76 1016.0
20260505192127 61 309 1.0 5.0 0.00 0.00 0.00 76 1016.1
20260505191625 61 312 1.0 5.0 0.00 0.00 0.00 75 1016.2
20260505191128 61 205 1.0 3.0 0.00 0.00 0.00 77 1016.2
20260505190624 60 300 2.0 6.0 0.00 0.00 0.00 77 1016.2
20260505190125 60 314 1.0 6.0 0.00 0.00 0.00 77 1016.2
20260505185626 60 236 2.0 6.0 0.00 0.00 0.00 77 1016.3
20260505185347 60 319 2.0 6.0 0.00 0.00 0.00 76 1016.3
20260505184625 60 329 1.0 5.0 0.00 0.00 0.00 76 1016.2
20260505184123 60 235 2.0 5.0 0.00 0.00 0.00 77 1016.2
20260505183625 60 213 1.0 6.0 0.00 0.00 0.00 78 1016.2
20260505183123 59 326 2.0 7.0 0.00 0.00 0.00 77 1016.3
20260505182624 59 344 2.0 7.0 0.00 0.00 0.00 76 1016.3
20260505182124 59 314 1.0 5.0 0.00 0.00 0.00 78 1016.2
20260505181625 59 299 2.0 5.0 0.00 0.00 0.00 78 1016.2
20260505181123 59 311 2.0 5.0 0.00 0.00 0.00 78 1016.2
20260505180624 59 333 2.0 5.0 0.00 0.00 0.00 78 1016.1
20260505180126 59 349 2.0 5.0 0.00 0.00 0.00 78 1016.2
20260505175625 59 338 2.0 5.0 0.00 0.00 0.00 81 1016.2
20260505175124 58 232 2.0 5.0 0.00 0.00 0.00 79 1016.2
20260505174622 58 315 3.0 5.0 0.00 0.00 0.00 78 1016.2
20260505174122 58 309 3.0 5.0 0.00 0.00 0.00 78 1016.1
20260505173621 58 319 2.0 4.0 0.00 0.00 0.00 78 1016.1
20260505173340 59 326 1.0 5.0 0.00 0.00 0.00 78 1016.1
20260505172839 59 317 1.0 5.0 0.00 0.00 0.00 77 1016.1
20260505172119 59 250 1.0 3.0 0.00 0.00 0.00 79 1016.0
20260505171621 58 355 1.0 4.0 0.00 0.00 0.00 79 1016.0
20260505171120 58 199 1.0 4.0 0.00 0.00 0.00 81 1016.0
20260505170619 58 355 1.0 4.0 0.00 0.00 0.00 80 1016.1
20260505170121 58 15 1.0 4.0 0.00 0.00 0.00 80 1016.0
20260505165621 58 319 1.0 3.0 0.00 0.00 0.00 81 1016.0
20260505165342 58 277 1.0 3.0 0.00 0.00 0.00 81 1016.0
20260505164621 57 287 0.0 2.0 0.00 0.00 0.00 82 1016.0
20260505164120 57 306 0.0 2.0 0.00 0.00 0.00 84 1016.1
20260505163846 56 36 0.0 2.0 0.00 0.00 0.00 83 1016.0
20260505163117 56 46 0.0 2.0 0.00 0.00 0.00 84 1016.0
20260505162615 56 327 0.0 2.0 0.00 0.00 0.00 86 1016.0
20260505162116 56 266 0.0 2.0 0.00 0.00 0.00 85 1016.1
20260505161617 55 121 0.0 2.0 0.00 0.00 0.00 87 1016.0
20260505161116 55 328 0.0 2.0 0.00 0.00 0.00 87 1016.1
20260505160616 55 232 0.0 2.0 0.00 0.00 0.00 88 1016.1
20260505160115 55 267 0.0 2.0 0.00 0.00 0.00 87 1016.1
20260505153107 53 236 1.0 2.0 0.00 0.00 0.00 90 1015.9
20260505152823 53 322 1.0 2.0 0.00 0.00 0.00 90 1015.9
20260505152109 53 333 1.0 2.0 0.00 0.00 0.00 89 1015.9
20260505151606 53 314 1.0 3.0 0.00 0.00 0.00 90 1015.8
20260505150603 53 315 1.0 3.0 0.00 0.00 0.00 90 1015.8
20260505150106 53 305 1.0 3.0 0.00 0.00 0.00 90 1015.8
20260505140601 53 209 0.0 2.0 0.00 0.00 0.00 90 1015.4
20260505140331 53 209 0.0 2.0 0.00 0.00 0.00 90 1015.4
20260505124812 53 183 0.0 0.0 0.00 0.00 0.00 90 1014.8
20260505124048 53 183 0.0 0.0 0.00 0.00 0.00 90 1014.8
20260505123547 53 183 0.0 0.0 0.00 0.00 0.00 90 1014.7
20260505123050 53 183 0.0 2.0 0.00 0.00 0.00 90 1014.7
20260505122550 53 183 0.0 2.0 0.00 0.00 0.00 90 1014.7
20260505122048 53 183 0.0 0.0 0.00 0.00 0.00 90 1014.7
20260505121546 53 183 0.0 2.0 0.00 0.00 0.00 90 1014.7
20260505121043 53 183 0.0 2.0 0.00 0.00 0.00 90 1014.6
20260505120540 53 129 0.0 2.0 0.00 0.00 0.00 90 1014.6
20260505120038 53 129 0.0 2.0 0.00 0.00 0.00 90 1014.6
20260505115537 53 129 0.0 2.0 0.00 0.00 0.00 90 1014.5
20260505115035 53 129 0.0 2.0 0.00 0.00 0.00 90 1014.5
20260505114755 53 93 0.0 2.0 0.00 0.00 0.00 90 1014.5
20260505114029 53 93 0.0 2.0 0.00 0.00 0.00 90 1014.5
20260505113532 53 93 0.0 0.0 0.00 0.00 0.00 90 1014.5
20260505113032 53 93 0.0 0.0 0.00 0.00 0.00 89 1014.5
20260505112532 53 93 0.0 0.0 0.00 0.00 0.00 89 1014.6
20260505112029 53 93 0.0 0.0 0.00 0.00 0.00 89 1014.6
20260505111530 53 93 0.0 0.0 0.00 0.00 0.00 89 1014.6
20260505111031 53 93 0.0 0.0 0.00 0.00 0.00 89 1014.6
20260505110528 53 93 0.0 0.0 0.00 0.00 0.00 89 1014.7
20260505102017 53 165 0.0 2.0 0.00 0.00 0.00 89 1014.8
20260505101515 53 165 0.0 2.0 0.00 0.00 0.00 89 1014.7
20260505101015 53 177 0.0 2.0 0.00 0.00 0.00 89 1014.7
20260505100511 53 205 0.0 2.0 0.00 0.00 0.00 89 1014.7
20260505100006 53 248 0.0 0.0 0.00 0.00 0.00 89 1014.7
20260505095012 53 249 0.0 2.0 0.00 0.00 0.00 89 1014.8
20260505094508 53 249 0.0 2.0 0.00 0.00 0.00 89 1014.8
20260505094016 53 249 0.0 2.0 0.00 0.00 0.00 89 1014.9
20260505093503 53 248 0.0 2.0 0.00 0.00 0.00 89 1015.0
20260505093007 53 177 0.0 2.0 0.00 0.00 0.00 89 1014.9
20260505092506 53 188 0.0 2.0 0.00 0.00 0.00 89 1014.9
20260505092010 53 184 0.0 2.0 0.00 0.00 0.00 89 1014.9
20260505091500 53 168 0.0 2.0 0.00 0.00 0.00 89 1014.9
20260505091006 53 148 0.0 2.0 0.00 0.00 0.00 89 1015.0
20260505090503 53 190 0.0 2.0 0.00 0.00 0.00 88 1014.9
20260505090005 53 189 0.0 2.0 0.00 0.00 0.00 89 1014.9
20260505085501 53 215 0.0 2.0 0.00 0.00 0.00 88 1015.0
20260505085009 53 215 0.0 2.0 0.00 0.00 0.00 88 1015.1
20260505084500 53 215 0.0 2.0 0.00 0.00 0.00 88 1015.1
20260505084006 53 215 0.0 2.0 0.00 0.00 0.00 88 1015.1
20260505083505 53 325 0.0 1.0 0.00 0.00 0.00 88 1015.1
20260505083004 53 325 0.0 1.0 0.00 0.00 0.00 88 1015.1
20260505082504 53 325 0.0 0.0 0.00 0.00 0.00 88 1015.2
20260505082005 53 325 0.0 1.0 0.00 0.00 0.00 88 1015.3
20260505081502 53 325 0.0 1.0 0.00 0.00 0.00 88 1015.3
20260505081001 53 325 0.0 2.0 0.00 0.00 0.00 88 1015.3
20260505080459 53 325 0.0 2.0 0.00 0.00 0.00 88 1015.3
20260505075719 53 355 0.0 2.0 0.00 0.00 0.00 87 1015.3
20260505075004 54 53 0.0 2.0 0.00 0.00 0.00 88 1015.3
20260505074457 54 57 0.0 2.0 0.00 0.00 0.00 88 1015.3
20260505073736 54 57 0.0 2.0 0.00 0.00 0.00 88 1015.4
20260505073001 54 58 0.0 2.0 0.00 0.00 0.00 88 1015.4
20260505072459 54 163 0.0 2.0 0.00 0.00 0.00 88 1015.4
20260505071955 54 163 0.0 0.0 0.00 0.00 0.00 88 1015.4
20260505071727 54 163 0.0 0.0 0.00 0.00 0.00 88 1015.4
20260505071254 54 163 0.0 2.0 0.00 0.03 0.00 88 1015.4
20260505070754 54 168 0.0 2.0 0.00 0.03 0.00 88 1015.5
20260505070254 54 168 0.0 2.0 0.00 0.03 0.00 88 1015.5
20260505065757 54 168 0.0 2.0 0.00 0.03 0.04 88 1015.5
20260505065254 54 142 0.0 2.0 0.00 0.03 0.04 87 1015.5
20260505064755 54 142 0.0 2.0 0.00 0.03 0.04 87 1015.6
20260505064257 54 142 0.0 2.0 0.00 0.03 0.04 87 1015.6
20260505063755 54 105 0.0 2.0 0.00 0.03 0.04 87 1015.6
20260505063255 54 58 0.0 2.0 0.00 0.03 0.04 87 1015.6
20260505062757 54 57 0.0 2.0 0.00 0.03 0.04 87 1015.5
20260505062255 54 57 0.0 2.0 0.00 0.03 0.04 86 1015.6
20260505061755 54 34 0.0 0.0 0.00 0.03 0.04 86 1015.6
20260505061255 54 34 0.0 2.0 0.00 0.03 0.04 86 1015.6
20260505060756 54 34 0.0 2.0 0.00 0.03 0.04 86 1015.5
20260505060255 54 34 0.0 2.0 0.00 0.03 0.04 86 1015.6
20260505055252 54 32 0.0 2.0 0.00 0.03 0.04 85 1015.5
20260505054750 54 32 0.0 2.0 0.00 0.03 0.04 85 1015.6
20260505054249 54 32 0.0 2.0 0.00 0.03 0.04 85 1015.6
20260505053745 54 32 0.0 2.0 0.00 0.03 0.04 85 1015.7
20260505053240 54 32 0.0 2.0 0.00 0.03 0.04 85 1015.7
20260505052733 55 17 0.0 2.0 0.00 0.03 0.04 85 1015.8
20260505052228 55 9 0.0 2.0 0.00 0.03 0.04 85 1015.7
20260505051951 55 18 0.0 2.0 0.00 0.03 0.04 85 1015.8
20260505051231 55 27 0.0 2.0 0.00 0.03 0.04 85 1015.7
20260505050728 55 26 0.0 2.0 0.00 0.03 0.04 85 1015.8
20260505050225 55 355 0.0 2.0 0.00 0.03 0.04 85 1015.7